Location: ????????
(55.8351°N, 38.7040°E)
Time: 10:12:30
(UTC+00:00)

Cosmos 2219 Rocket - Pass Details

Date: 14 April 2024
Orbit: 828 x 845 km, 71.0° (Epoch: 20 May)

Event Time Altitude Azimuth Distance (km) Brightness Sun altitude
Exits shadow 00:27:00 22° 233° (SW) 1,750 3.2 -14.6°
Maximum altitude 00:30:39 64° 310° (NW) 920 2.3 -14.2°
Drops below altitude 10° 00:36:13 10° 32° (NNE) 2,446 5.9 -13.6°
Sets 00:38:42 0° 35° (NE) 3,384 7.0 -13.4°
